Location: Lafig�re
(44.4503°N, 4.0357°E)
Time: 21:15:28
(UTC+00:00)

Explorer 11/Cluster Stage 4 - Visible Passes

Search period start: 21 January 2021 00:00
Search period end: 31 January 2021 00:00
Orbit: 467 x 1258 km, 28.8° (Epoch: 21 January)

Date Brightness Start Highest point End Pass type
(mag) Time Alt. Az. Time Alt. Az. Time Alt. Az.
27 Jan 9.0 19:47:40 10° SSW 19:47:49 10° SSW 19:47:49 10° SSW visible
28 Jan 8.8 19:36:48 10° SSW 19:37:32 12° SSW 19:37:32 12° SSW visible
29 Jan 8.7 19:26:01 10° SSW 19:27:16 13° S 19:27:16 13° S visible
30 Jan 8.6 19:15:18 10° SSW 19:16:59 13° S 19:16:59 13° S visible
